TimeCST,TemperatureF,Dew PointF,Humidity,Sea Level PressureIn,VisibilityMPH,Wind Direction,Wind SpeedMPH,Gust SpeedMPH,PrecipitationIn,Events,Conditions,WindDirDegrees,DateUTC
12:10 AM,3.2,-2.2,78,30.04,10.0,WNW,6.9,-,N/A,,Scattered Clouds,290,2013-01-13 06:10:00
12:29 AM,1.4,-2.2,85,30.05,10.0,WNW,9.2,-,N/A,,Clear,290,2013-01-13 06:29:00
12:50 AM,1.4,-2.2,85,30.04,10.0,WNW,8.1,-,N/A,,Clear,300,2013-01-13 06:50:00
1:10 AM,1.4,-2.2,85,30.04,10.0,WNW,9.2,-,N/A,,Clear,300,2013-01-13 07:10:00
1:29 AM,1.4,-2.2,85,30.04,10.0,WNW,8.1,-,N/A,,Clear,290,2013-01-13 07:29:00
1:50 AM,1.4,-4.0,78,30.04,10.0,WNW,9.2,-,N/A,,Clear,290,2013-01-13 07:50:00
2:10 AM,1.4,-4.0,78,30.04,10.0,WNW,8.1,-,N/A,,Clear,300,2013-01-13 08:10:00
2:29 AM,1.4,-4.0,78,30.04,10.0,WNW,8.1,-,N/A,,Clear,300,2013-01-13 08:29:00
2:50 AM,1.4,-4.0,78,30.04,10.0,WNW,8.1,-,N/A,,Clear,290,2013-01-13 08:50:00
3:10 AM,1.4,-4.0,78,30.04,10.0,WNW,6.9,-,N/A,,Clear,290,2013-01-13 09:10:00
3:29 AM,1.4,-4.0,78,30.03,10.0,WNW,5.8,-,N/A,,Clear,290,2013-01-13 09:29:00
3:50 AM,-0.4,-4.0,85,30.04,10.0,West,4.6,-,N/A,,Clear,270,2013-01-13 09:50:00
4:10 AM,-0.4,-4.0,85,30.04,10.0,West,6.9,-,N/A,,Clear,280,2013-01-13 10:10:00
4:29 AM,-0.4,-4.0,85,30.04,10.0,West,9.2,-,N/A,,Clear,280,2013-01-13 10:29:00
4:50 AM,-0.4,-4.0,85,30.03,10.0,West,6.9,-,N/A,,Clear,280,2013-01-13 10:50:00
5:10 AM,-0.4,-4.0,85,30.03,10.0,WNW,10.4,-,N/A,,Clear,290,2013-01-13 11:10:00
5:29 AM,-0.4,-4.0,85,30.04,10.0,WNW,8.1,-,N/A,,Clear,290,2013-01-13 11:29:00
5:50 AM,-0.4,-4.0,85,30.05,10.0,WNW,9.2,-,N/A,,Scattered Clouds,290,2013-01-13 11:50:00
6:10 AM,-0.4,-4.0,85,30.06,10.0,WNW,6.9,-,N/A,,Mostly Cloudy,290,2013-01-13 12:10:00
6:29 AM,1.4,-4.0,78,30.07,10.0,WNW,5.8,-,N/A,,Overcast,290,2013-01-13 12:29:00
6:50 AM,1.4,-2.2,85,30.08,10.0,WNW,8.1,-,N/A,,Overcast,290,2013-01-13 12:50:00
7:10 AM,1.4,-2.2,85,30.09,10.0,WNW,8.1,-,N/A,,Overcast,300,2013-01-13 13:10:00
7:29 AM,1.4,-2.2,85,30.10,10.0,WNW,8.1,-,N/A,,Overcast,300,2013-01-13 13:29:00
7:50 AM,1.4,-2.2,85,30.10,10.0,WNW,10.4,-,N/A,,Overcast,300,2013-01-13 13:50:00
8:10 AM,1.4,-2.2,85,30.11,10.0,WNW,6.9,-,N/A,,Overcast,290,2013-01-13 14:10:00
8:29 AM,1.4,-2.2,85,30.12,10.0,WNW,5.8,-,N/A,,Overcast,300,2013-01-13 14:29:00
8:50 AM,1.4,-2.2,85,30.12,10.0,WNW,6.9,-,N/A,,Overcast,290,2013-01-13 14:50:00
9:10 AM,1.4,-2.2,85,30.13,10.0,WNW,8.1,-,N/A,,Overcast,290,2013-01-13 15:10:00
9:29 AM,1.4,-2.2,85,30.14,10.0,West,10.4,-,N/A,,Overcast,280,2013-01-13 15:29:00
9:50 AM,1.4,-2.2,85,30.13,10.0,WNW,9.2,-,N/A,,Overcast,290,2013-01-13 15:50:00
10:09 AM,1.4,-2.2,85,30.12,3.0,NW,10.4,-,N/A,Snow,Light Snow,310,2013-01-13 16:09:00
10:29 AM,30.2,-2.2,25,30.12,4.0,WNW,8.1,-,N/A,Snow,Light Snow,290,2013-01-13 16:29:00
10:50 AM,3.2,-2.2,78,30.10,5.0,West,9.2,-,N/A,Snow,Light Snow,280,2013-01-13 16:50:00
11:09 AM,3.2,-2.2,78,30.09,7.0,WNW,8.1,-,N/A,Snow,Light Snow,290,2013-01-13 17:09:00
11:29 AM,5.0,-2.2,72,30.08,7.0,WNW,8.1,-,N/A,,Scattered Clouds,290,2013-01-13 17:29:00
11:50 AM,5.0,-0.4,78,30.07,10.0,West,10.4,-,N/A,,Scattered Clouds,280,2013-01-13 17:50:00
12:09 PM,6.8,-0.4,72,30.07,10.0,WNW,10.4,-,N/A,,Mostly Cloudy,290,2013-01-13 18:09:00
12:29 PM,6.8,-0.4,72,30.07,7.0,WNW,12.7,-,N/A,,Mostly Cloudy,300,2013-01-13 18:29:00
12:50 PM,6.8,1.4,79,30.07,7.0,West,9.2,-,N/A,,Mostly Cloudy,280,2013-01-13 18:50:00
1:09 PM,8.6,1.4,73,30.07,7.0,West,10.4,-,N/A,,Mostly Cloudy,280,2013-01-13 19:09:00
1:29 PM,6.8,-0.4,72,30.08,10.0,West,9.2,-,N/A,,Mostly Cloudy,260,2013-01-13 19:29:00
1:50 PM,6.8,1.4,79,30.08,7.0,West,9.2,-,N/A,,Scattered Clouds,280,2013-01-13 19:50:00
2:09 PM,6.8,1.4,79,30.09,5.0,West,9.2,-,N/A,,Haze,260,2013-01-13 20:09:00
2:29 PM,8.6,1.4,73,30.09,4.0,West,9.2,-,N/A,,Haze,280,2013-01-13 20:29:00
2:50 PM,8.6,1.4,73,30.10,3.0,WNW,12.7,-,N/A,,Haze,290,2013-01-13 20:50:00
3:10 PM,8.6,-0.4,67,30.11,10.0,West,10.4,-,N/A,,Scattered Clouds,280,2013-01-13 21:10:00
3:29 PM,6.8,-0.4,72,30.11,7.0,West,12.7,-,N/A,,Scattered Clouds,280,2013-01-13 21:29:00
3:50 PM,6.8,-0.4,72,30.12,10.0,West,13.8,-,N/A,,Scattered Clouds,280,2013-01-13 21:50:00
4:10 PM,6.8,1.4,79,30.12,10.0,West,11.5,-,N/A,,Mostly Cloudy,270,2013-01-13 22:10:00
4:29 PM,6.8,-0.4,72,30.13,10.0,West,11.5,-,N/A,,Overcast,280,2013-01-13 22:29:00
4:50 PM,6.8,1.4,79,30.13,10.0,West,11.5,-,N/A,,Overcast,280,2013-01-13 22:50:00
5:10 PM,6.8,1.4,79,30.14,10.0,West,12.7,16.1,N/A,,Overcast,280,2013-01-13 23:10:00
5:29 PM,6.8,1.4,79,30.14,10.0,West,10.4,-,N/A,,Overcast,280,2013-01-13 23:29:00
5:50 PM,5.0,-0.4,78,30.15,10.0,West,10.4,-,N/A,,Scattered Clouds,270,2013-01-13 23:50:00
6:10 PM,3.2,-0.4,85,30.15,10.0,West,12.7,-,N/A,,Clear,270,2013-01-14 00:10:00
6:29 PM,3.2,-0.4,85,30.17,10.0,West,10.4,-,N/A,,Clear,270,2013-01-14 00:29:00
6:50 PM,3.2,-2.2,78,30.17,10.0,West,10.4,-,N/A,,Clear,270,2013-01-14 00:50:00
7:10 PM,3.2,-2.2,78,30.17,10.0,West,11.5,-,N/A,,Clear,270,2013-01-14 01:10:00
7:29 PM,1.4,-2.2,85,30.18,10.0,West,8.1,-,N/A,,Clear,260,2013-01-14 01:29:00
7:50 PM,1.4,-2.2,85,30.19,10.0,West,8.1,-,N/A,,Clear,260,2013-01-14 01:50:00
8:10 PM,1.4,-2.2,85,30.19,10.0,West,9.2,-,N/A,,Clear,270,2013-01-14 02:10:00
8:29 PM,1.4,-2.2,85,30.19,10.0,West,8.1,-,N/A,,Clear,270,2013-01-14 02:29:00
8:50 PM,1.4,-2.2,85,30.19,10.0,West,10.4,-,N/A,,Clear,270,2013-01-14 02:50:00
9:10 PM,3.2,-2.2,78,30.20,10.0,West,6.9,-,N/A,,Clear,270,2013-01-14 03:10:00
9:29 PM,3.2,-2.2,78,30.20,10.0,West,5.8,-,N/A,,Clear,260,2013-01-14 03:29:00
9:50 PM,3.2,-2.2,78,30.21,10.0,WSW,4.6,-,N/A,,Clear,240,2013-01-14 03:50:00
10:10 PM,3.2,-0.4,85,30.21,10.0,WSW,4.6,-,N/A,,Clear,250,2013-01-14 04:10:00
10:29 PM,3.2,-0.4,85,30.21,10.0,WSW,4.6,-,N/A,,Clear,250,2013-01-14 04:29:00
10:50 PM,3.2,-0.4,85,30.22,10.0,WSW,4.6,-,N/A,,Clear,240,2013-01-14 04:50:00
11:29 PM,1.4,-0.4,92,30.22,10.0,WSW,3.5,-,N/A,,Clear,250,2013-01-14 05:29:00
11:50 PM,1.4,-0.4,92,30.23,10.0,SW,3.5,-,N/A,,Clear,230,2013-01-14 05:50:00